Wetbulb
58.31 58.52 58.50 58.18 58.26 58.52 58.71 58.77 58.81 59.06 59.34 59.46 59.78 60.33 61.54 61.78 61.42 65.61 64.16 67.21 70.97 75.00 72.58 69.98 69.24 68.34 68.54 66.06 67.67 68.48 61.28 58.53 59.66 60.74 62.74 66.25 65.59 69.14 70.13 68.45 69.25 69.76 70.68 72.75 74.35
58.51 58.49 58.43 58.24 58.24 58.24 58.47 58.25 58.48 58.67 58.79 59.01 59.49 60.29 61.68 61.87 63.96 62.53 71.68 76.05 75.70 75.29 68.69 67.11 66.05 67.19 65.41 64.81 66.39 64.24 60.70 60.54 63.36 63.99 64.06 66.69 67.38 67.60 67.29 67.66 67.51 69.68 72.67 73.66 73.75
58.35 58.31 57.85 58.06 58.24 58.24 58.17 58.08 58.03 58.13 58.36 58.57 59.27 60.73 61.63 62.74 63.30 62.72 73.24 76.68 76.64 73.61 68.90 68.89 67.61 66.89 63.50 64.72 64.03 63.76 60.64 63.07 63.88 65.70 66.66 66.87 66.33 65.64 64.70 64.71 67.69 68.38 70.59 72.16 72.63
58.09 58.09 58.09 58.03 57.99 57.93 57.85 57.76 57.55 57.54 57.96 58.42 59.67 61.14 61.96 64.41 56.62 65.04 73.78 75.24 74.81 70.27 69.00 67.70 66.77 64.41 62.26 61.41 63.35 60.61 62.65 63.04 64.49 66.15 65.76 66.08 67.88 65.69 65.97 67.11 70.01 71.04 71.98 72.08 71.70
57.68 57.52 57.58 57.52 57.57 57.70 57.54 57.23 57.07 57.06 57.50 58.37 60.09 61.24 64.09 60.46 60.50 65.96 73.05 74.24 68.32 67.21 68.35 66.82 65.36 64.26 61.44 61.92 62.43 61.54 61.33 62.86 65.19 65.55 66.25 67.11 66.80 66.78 66.35 69.19 70.90 71.61 71.67 71.34 71.62
57.05 57.32 57.33 57.22 57.27 57.20 57.11 56.84 56.61 56.62 57.19 58.74 60.55 61.19 63.38 56.54 64.53 66.41 65.53 69.71 70.05 69.71 68.48 67.56 65.82 65.35 63.41 61.65 61.50 62.09 62.23 62.35 64.35 64.84 65.86 65.52 67.29 68.18 67.65 69.72 69.90 70.39 70.35 70.89 70.69
57.05 57.03 56.87 56.90 57.10 56.95 56.66 56.30 56.32 56.53 57.45 59.41 61.01 63.31 59.19 57.58 63.78 66.75 66.32 66.83 69.92 69.87 67.40 68.33 67.61 65.42 64.31 61.59 62.67 61.87 60.11 61.58 62.04 63.37 63.97 65.99 63.71 65.54 68.58 69.32 68.80 69.42 69.99 70.35 70.77
56.79 56.95 57.16 57.06 56.69 56.49 56.01 55.59 55.81 57.02 57.91 59.90 61.47 63.21 57.11 60.88 62.99 64.10 66.40 66.02 67.28 68.61 67.83 68.32 68.24 65.86 64.73 64.42 61.79 60.22 60.41 57.08 61.05 62.32 63.54 64.39 59.20 67.25 69.24 68.62 67.79 68.75 69.42 70.01 70.84
57.01 56.65 56.78 57.17 56.71 56.19 55.67 55.58 56.74 58.32 59.26 60.87 63.20 61.72 55.47 61.13 58.36 64.13 66.54 64.82 67.03 68.24 68.64 67.42 67.47 64.69 63.82 60.03 58.69 58.78 54.76 56.63 58.39 62.14 61.77 62.12 60.65 67.55 69.74 68.50 67.62 68.36 69.11 69.55 70.72
56.64 56.41 56.68 56.81 56.33 55.49 55.08 55.51 58.26 58.98 60.75 63.25 60.92 56.97 58.00 55.31 60.12 63.61 65.74 66.08 65.02 65.78 65.42 64.96 64.63 61.91 61.38 59.56 53.86 55.72 55.82 56.68 56.18 60.24 60.33 59.43 61.57 66.69 68.86 68.46 67.85 68.03 69.06 69.45 70.12
56.41 56.12 55.63 56.02 55.51 54.91 56.24 60.75 58.34 58.07 59.54 55.58 55.29 54.42 55.83 60.64 62.21 61.96 64.75 63.95 64.24 63.80 60.79 63.28 60.42 58.40 59.49 60.64 60.13 58.44 56.85 55.10 57.47 58.85 59.22 59.23 60.80 64.46 67.38 67.63 67.76 67.85 68.08 69.10 69.70
56.31 55.93 55.70 55.26 54.83 54.73 56.46 58.40 56.89 58.16 54.62 57.09 55.75 55.18 57.65 59.21 56.36 60.74 64.94 60.23 59.97 58.65 61.69 61.03 57.94 60.94 61.33 59.98 58.74 58.13 56.40 55.93 57.67 59.16 58.92 58.76 58.19 62.01 64.95 66.55 67.37 68.06 68.17 68.78 69.58
55.68 55.87 55.18 54.62 54.18 56.31 59.17 58.62 60.55 60.52 54.65 55.98 56.22 54.53 55.46 57.47 55.92 58.85 62.28 60.73 58.05 57.61 59.09 58.66 59.44 62.08 60.03 58.79 57.87 58.05 56.59 55.95 56.88 58.23 58.85 56.48 56.27 59.51 63.84 65.12 66.38 67.74 69.73 69.25 70.34
55.95 55.46 54.71 53.71 54.82 61.31 57.96 60.36 60.97 61.62 51.41 52.51 53.88 54.71 56.27 56.76 54.23 61.03 62.70 60.27 58.26 56.10 58.69 59.64 61.88 60.23 58.59 58.02 58.75 55.05 57.82 56.20 55.61 55.36 51.73 57.97 51.32 57.96 62.62 63.62 66.06 66.59 68.04 69.56 70.44
55.41 55.05 53.81 53.15 58.30 58.06 60.27 61.95 62.02 61.10 44.51 54.14 53.80 59.11 57.22 54.84 55.97 56.67 63.01 60.26 56.32 56.34 58.12 58.44 59.42 58.79 57.77 58.15 59.08 56.55 58.71 56.88 56.08 55.48 55.31 55.55 52.40 57.06 61.88 62.84 64.63 66.97 68.05 69.04 71.19
54.40 54.03 53.40 58.26 59.54 61.99 62.16 62.59 60.07 50.17 44.28 50.83 54.28 53.38 53.28 54.43 55.73 57.47 58.56 60.99 60.26 57.08 57.84 59.33 62.46 61.40 59.87 60.50 59.26 59.60 57.57 56.86 57.02 55.78 50.90 54.93 53.50 53.24 52.99 62.63 65.43 67.72 68.30 69.14 70.09
53.34 52.54 53.23 60.29 61.19 62.88 62.41 60.28 49.81 46.29 54.07 50.49 50.93 52.76 52.64 52.11 53.92 54.83 54.69 54.77 53.61 51.41 53.18 57.21 58.95 60.60 61.41 58.61 59.49 58.61 55.95 51.25 50.62 50.78 50.39 54.78 53.37 56.99 58.11 63.46 65.53 67.77 68.62 68.84 70.26
51.93 51.13 57.00 60.04 64.37 62.20 61.05 55.20 46.71 49.78 51.99 54.10 52.20 52.59 50.58 52.76 53.48 53.82 53.38 52.26 54.68 54.38 54.62 53.08 53.22 58.11 60.25 59.20 57.31 56.76 56.21 51.46 46.37 48.66 50.55 56.45 52.11 57.18 62.82 66.11 67.74 69.21 70.09 70.98 71.13
51.15 62.16 62.39 63.55 63.26 62.21 57.52 49.35 49.76 51.60 54.17 53.37 52.03 50.35 50.70 52.67 53.20 53.63 53.42 52.56 54.17 55.20 53.25 53.66 54.85 59.72 60.26 61.19 60.17 56.78 55.18 57.01 52.45 53.61 50.58 53.20 53.51 61.62 64.61 65.59 67.75 68.44 69.79 70.58 71.78
57.73 62.59 62.99 63.15 63.13 60.31 54.78 48.43 52.49 55.58 57.80 57.25 50.10 51.69 49.87 52.02 51.99 52.55 53.64 55.34 54.33 56.12 59.05 57.25 53.75 58.55 59.19 60.32 59.74 58.27 59.23 52.66 52.46 47.97 47.34 51.73 52.49 56.19 60.05 63.49 67.18 68.16 69.19 70.95 72.27
58.90 59.96 62.61 63.25 61.45 56.19 50.38 51.97 54.29 57.77 57.77 55.77 53.70 51.58 52.40 52.26 52.69 52.68 53.29 55.19 56.88 56.56 59.02 58.27 56.46 56.03 58.39 56.97 55.75 56.08 55.11 55.11 54.83 53.81 50.35 48.89 53.02 60.25 62.10 64.70 66.24 68.24 69.95 70.50 70.82
59.96 56.05 62.65 62.19 52.79 53.47 51.23 53.81 53.21 56.30 58.23 56.50 56.36 55.00 52.83 53.80 52.88 52.64 53.26 55.07 57.84 58.19 55.96 58.86 56.40 54.01 54.69 58.67 59.60 58.73 55.34 55.03 51.65 52.50 51.08 51.76 53.01 63.28 64.03 64.66 66.83 68.84 69.96 70.83 72.00
58.91 59.99 61.85 60.03 49.64 51.25 53.27 53.14 55.12 55.81 55.86 55.20 53.98 55.70 55.63 53.55 52.21 53.22 53.67 56.48 57.20 57.49 57.09 59.11 56.06 52.33 52.98 56.79 57.71 55.54 56.58 56.98 56.05 56.93 50.33 50.00 54.45 65.23 64.97 65.81 67.44 68.87 68.83 69.57 71.58
58.59 55.37 56.20 56.39 56.21 54.35 53.01 52.54 52.96 56.62 55.64 56.24 55.72 56.89 55.65 52.98 54.99 52.93 53.46 55.31 56.31 57.54 64.29 62.78 56.57 55.45 51.40 53.61 56.03 53.87 56.05 55.89 55.76 52.63 52.49 51.83 56.92 62.73 64.39 64.95 66.64 68.89 69.72 70.28 70.69
59.79 57.87 57.07 50.93 52.46 54.02 55.64 54.12 52.92 53.25 56.82 57.18 55.61 54.92 55.32 52.46 52.55 52.99 54.47 55.03 55.73 61.69 60.28 58.78 55.24 56.12 56.53 57.16 56.78 53.76 56.03 54.82 54.42 55.75 54.32 55.11 56.75 62.62 64.86 65.61 67.03 68.93 69.63 68.44 68.06
59.42 60.11 61.81 56.01 55.30 53.64 51.68 54.03 53.91 55.10 55.53 55.60 55.72 56.00 56.73 54.54 54.22 53.68 55.15 55.56 54.41 57.75 58.21 59.38 55.80 56.76 54.62 55.93 56.45 55.07 54.59 55.45 55.74 56.31 56.20 56.37 58.15 66.08 67.08 68.20 67.42 67.47 66.76 66.24 66.05
61.17 62.38 60.83 55.56 55.40 53.00 53.11 54.46 55.12 56.70 57.88 59.36 57.97 57.79 55.58 56.83 58.38 58.58 58.75 58.86 58.07 57.84 58.01 57.88 56.75 55.63 52.41 55.14 54.15 51.98 55.34 56.24 57.17 57.60 57.20 54.93 62.29 65.74 64.87 65.20 65.76 65.93 66.02 65.43 64.77
MSLP
1016.41 1016.16 1015.92 1015.66 1015.42 1015.16 1014.86 1014.51 1014.02 1013.59 1013.23 1012.67 1012.20 1011.86 1011.24 1010.87 1009.33 1007.88 1006.04 1005.15 1004.95 1005.27 1005.23 1003.37 1001.60 1000.80 1000.39 999.51 999.40 999.15 998.41 999.16 999.91 1000.71 1001.53 1001.64 1002.25 1002.97 1003.04 1003.35 1003.85 1003.81 1004.65 1006.81 1008.71
1016.32 1016.14 1015.89 1015.60 1015.43 1015.11 1014.77 1014.46 1014.15 1013.65 1013.20 1012.73 1012.22 1012.03 1011.41 1011.01 1008.84 1005.96 1005.29 1004.91 1004.86 1005.14 1004.29 1002.16 1001.09 1000.26 999.19 999.30 999.02 997.94 998.94 999.82 1000.07 1000.53 1001.34 1001.81 1002.35 1002.39 1002.64 1003.19 1004.17 1004.67 1006.18 1007.75 1008.78
1016.33 1016.09 1015.87 1015.50 1015.14 1014.93 1014.72 1014.49 1014.18 1013.79 1013.31 1012.88 1012.33 1011.90 1011.16 1010.78 1007.59 1003.89 1004.78 1004.70 1004.83 1004.83 1003.94 1002.43 1001.35 999.83 998.63 998.54 998.84 998.67 999.35 999.79 1000.49 1000.86 1001.23 1001.60 1001.64 1001.45 1001.49 1002.69 1003.94 1005.37 1006.78 1007.94 1008.63
1016.47 1016.17 1015.80 1015.41 1015.05 1014.74 1014.58 1014.43 1014.12 1013.68 1013.25 1012.76 1012.09 1011.52 1010.94 1009.59 1005.19 1003.89 1004.53 1004.62 1004.63 1004.00 1003.36 1001.91 1000.36 998.95 998.07 998.32 999.19 999.20 999.94 1000.02 1000.55 1001.03 1001.06 1001.56 1001.74 1002.36 1002.80 1003.37 1004.55 1005.79 1006.98 1007.62 1008.19
1016.54 1016.15 1015.77 1015.38 1014.98 1014.55 1014.21 1014.08 1013.88 1013.43 1012.88 1012.42 1011.93 1011.61 1010.01 1007.10 1003.84 1003.88 1004.29 1004.36 1003.99 1003.74 1002.60 1001.24 1000.13 999.36 998.36 998.53 999.13 998.75 999.56 999.88 1000.64 1000.73 1001.13 1001.47 1001.88 1002.69 1003.45 1004.22 1005.10 1006.10 1006.91 1007.37 1007.31
1016.46 1016.14 1015.78 1015.30 1014.82 1014.45 1014.13 1013.81 1013.68 1013.37 1012.91 1012.38 1011.76 1011.38 1009.24 1005.17 1002.98 1003.24 1003.55 1003.33 1002.65 1002.76 1001.72 1001.15 1000.34 1000.36 999.21 998.78 998.73 999.43 999.57 999.55 1000.05 1000.70 1001.09 1001.44 1002.13 1002.16 1003.87 1004.46 1005.31 1005.98 1006.45 1006.76 1006.96
1016.37 1016.03 1015.67 1015.29 1014.80 1014.25 1013.97 1013.69 1013.38 1013.15 1012.76 1012.16 1011.67 1010.83 1007.48 1003.82 1003.09 1003.00 1003.23 1002.59 1002.34 1001.97 1001.20 1000.80 1000.85 1000.23 999.38 998.74 999.43 999.12 998.92 999.33 999.75 1000.28 1000.57 1001.01 1001.89 1001.96 1003.61 1004.35 1005.05 1005.60 1006.06 1006.54 1006.86
1016.39 1016.02 1015.51 1015.11 1014.69 1014.10 1013.62 1013.35 1013.06 1012.76 1012.41 1011.95 1011.63 1010.03 1005.44 1003.27 1003.30 1003.18 1002.90 1002.45 1002.36 1001.86 1001.65 1001.11 1001.03 1000.50 999.69 999.14 998.98 998.36 998.38 998.77 999.35 999.99 1000.31 1001.28 1001.50 1002.36 1003.46 1004.05 1004.61 1005.20 1005.80 1006.30 1006.66
1016.21 1015.87 1015.45 1014.91 1014.45 1013.91 1013.31 1012.81 1012.34 1012.10 1011.94 1011.60 1010.70 1008.27 1004.01 1003.88 1003.39 1002.66 1002.35 1001.81 1001.69 1001.63 1001.37 1001.69 1001.02 999.91 998.95 998.49 997.63 997.77 998.51 998.02 998.68 999.52 999.58 1000.40 1000.80 1002.03 1002.93 1003.42 1004.01 1004.62 1005.31 1005.74 1006.17
1016.20 1015.80 1015.38 1014.86 1014.29 1013.66 1012.83 1012.27 1011.68 1011.58 1011.29 1009.95 1008.64 1006.90 1003.83 1002.23 1002.03 1001.85 1001.89 1001.69 1001.19 1001.19 1001.15 1001.22 1000.46 999.27 998.28 997.21 997.44 997.22 997.09 997.77 998.20 998.79 999.54 999.61 1000.00 1001.28 1002.18 1002.51 1003.36 1004.00 1004.66 1005.13 1005.60
1016.13 1015.70 1015.26 1014.82 1014.29 1013.71 1012.57 1010.84 1010.60 1009.45 1008.12 1005.14 1004.29 1003.22 1002.10 1001.54 1002.00 1002.20 1001.61 1001.65 1001.03 1000.74 1000.43 1000.31 999.58 998.03 997.22 997.22 997.85 997.53 997.63 997.68 998.10 998.75 999.10 999.05 999.18 1000.25 1001.16 1001.73 1002.14 1003.01 1003.90 1004.31 1004.68
1016.09 1015.59 1015.10 1014.60 1014.07 1013.58 1013.02 1008.92 1006.76 1006.81 1005.17 1004.13 1003.69 1003.16 1002.94 1002.44 1001.51 1001.30 1001.31 1001.20 1000.66 1000.01 1000.06 999.38 998.61 997.86 998.15 998.43 998.29 997.87 997.46 997.35 998.38 998.79 998.81 998.67 998.79 998.97 1000.01 1000.93 1001.13 1001.72 1002.64 1003.33 1003.75
1016.12 1015.55 1015.01 1014.35 1013.63 1012.72 1009.92 1007.49 1007.08 1006.48 1004.53 1001.92 1002.11 1002.12 1002.09 1002.22 1000.67 1000.12 1000.64 1000.43 999.98 999.71 999.27 998.43 998.04 998.15 998.56 998.19 998.23 997.56 996.94 997.24 998.08 998.45 998.28 998.36 998.23 998.80 1000.02 1000.42 1000.69 1001.00 1001.62 1002.31 1003.26
1015.96 1015.47 1014.94 1014.11 1013.24 1009.53 1008.03 1007.11 1006.92 1006.59 1003.68 1000.93 1001.13 1000.91 1001.11 1001.30 1000.32 999.53 1000.19 999.89 999.35 999.12 998.76 998.33 997.64 998.06 998.26 997.84 997.60 997.42 997.52 997.82 998.03 997.70 997.75 998.11 997.62 998.13 999.53 999.92 1000.70 1000.71 1001.03 1001.36 1002.62
1015.82 1015.37 1014.90 1014.70 1012.32 1008.58 1007.28 1007.03 1006.68 1006.26 1001.73 999.21 999.64 999.68 1000.29 1000.18 998.72 999.46 999.60 999.57 999.00 998.80 998.52 997.72 997.55 998.13 997.94 997.52 997.71 997.93 998.13 997.90 998.12 997.74 997.05 997.55 997.40 998.30 999.28 999.93 1000.43 1000.46 1000.90 1001.09 1001.91
1015.47 1015.00 1014.53 1012.38 1011.80 1008.41 1007.62 1007.17 1006.59 1004.40 999.56 998.71 999.19 999.55 999.40 999.54 998.43 998.90 999.57 999.54 999.25 998.87 998.43 997.67 997.68 997.73 997.92 997.67 998.28 998.22 998.11 998.18 998.06 997.55 996.92 997.15 997.88 1001.11 1002.06 999.43 1000.76 1001.46 1001.46 1001.21 1001.16
1014.64 1014.19 1014.20 1011.61 1008.19 1007.59 1007.54 1006.72 1004.52 1001.09 998.67 998.17 998.31 998.55 998.58 998.43 998.23 998.30 998.95 999.16 998.73 998.51 997.83 997.68 996.91 997.65 997.87 998.19 998.02 998.20 997.25 996.64 996.87 997.07 996.85 998.93 998.32 1000.53 1000.47 999.96 1000.40 1001.38 1001.64 1001.57 1001.44
1013.58 1013.26 1011.52 1010.61 1008.52 1008.28 1007.39 1005.73 1002.16 999.16 997.67 997.39 997.52 997.87 997.69 997.59 997.54 998.14 998.42 998.29 998.59 997.95 996.95 997.10 996.78 997.41 998.00 997.70 996.96 997.27 996.48 996.43 997.15 995.99 996.38 997.49 998.33 1001.21 1000.44 1000.38 1001.07 1001.50 1001.92 1002.36 1002.62
1012.60 1010.22 1009.40 1008.21 1008.97 1008.11 1006.46 1003.49 1000.55 998.07 997.37 997.32 997.17 997.19 997.00 996.97 996.94 997.38 997.45 997.32 997.50 997.41 996.52 996.03 995.99 996.84 997.12 997.34 997.40 997.18 996.62 995.89 995.85 995.81 996.88 998.41 1000.00 999.65 999.93 1000.62 1001.27 1001.65 1002.34 1002.79 1003.34
1012.08 1008.35 1006.76 1007.48 1008.33 1007.59 1005.51 1002.06 999.45 998.79 998.32 997.65 996.67 996.66 996.24 996.21 996.55 996.76 996.64 996.74 996.60 996.84 996.17 995.44 995.80 996.01 996.83 997.07 997.13 996.89 996.90 996.03 996.19 996.41 996.82 997.74 999.28 998.60 999.32 1000.02 1000.99 1001.76 1002.57 1003.25 1004.12
1011.29 1007.09 1006.82 1007.22 1007.58 1006.22 1003.68 1001.20 999.64 999.41 999.39 998.08 996.76 996.26 995.83 995.72 996.36 996.15 996.00 996.14 996.28 996.67 996.13 995.02 995.24 995.68 996.22 996.81 996.53 996.73 996.69 996.50 996.37 997.09 997.30 998.97 1000.01 1000.57 998.15 999.95 1000.51 1001.85 1003.08 1004.01 1004.80
1009.45 1005.97 1006.76 1006.85 1006.06 1004.33 1002.49 1000.82 999.95 999.04 999.30 998.55 997.86 996.48 995.88 995.49 995.88 995.69 995.52 995.88 996.19 996.30 995.94 995.30 994.94 995.56 996.05 996.37 996.29 995.93 995.99 996.17 996.28 998.03 1000.06 1000.82 1001.00 1000.95 1000.86 1000.12 1000.77 1002.10 1003.46 1004.25 1004.92
1008.81 1005.48 1006.56 1006.07 1003.95 1002.17 1001.66 1000.52 999.54 999.47 998.93 998.49 997.76 997.36 996.29 995.55 995.59 995.77 995.58 995.87 996.25 996.26 996.00 995.50 994.90 994.93 995.66 996.42 996.48 996.12 995.75 995.53 997.13 998.25 1000.36 1000.25 1000.76 1000.74 1001.16 1001.31 1002.00 1002.79 1004.20 1005.65 1005.97
1009.54 1004.83 1005.32 1005.46 1003.25 1001.36 1000.04 1000.02 999.34 999.45 999.17 998.63 997.90 997.09 996.43 995.73 995.45 995.61 995.23 995.58 996.30 996.43 996.63 996.16 994.86 994.74 996.11 996.59 995.86 996.33 996.04 996.72 996.42 996.92 998.26 1001.92 1000.45 1001.66 1001.79 1002.52 1002.98 1003.98 1005.22 1006.32 1007.06
1008.58 1004.00 1002.15 1002.82 1002.45 1001.40 999.69 998.86 998.76 998.30 998.41 997.96 997.56 997.21 996.10 995.36 995.05 994.99 995.09 995.41 996.18 996.49 996.74 996.41 995.32 995.76 997.06 997.59 997.46 998.40 997.16 997.37 997.65 997.85 998.44 998.82 999.98 1001.81 1002.56 1003.35 1004.36 1005.27 1006.23 1007.66 1008.44
1007.63 1004.87 1003.33 1001.80 1000.81 1000.80 1000.03 998.99 998.31 997.90 997.85 997.07 997.05 996.20 995.70 994.75 994.39 994.40 994.48 994.84 995.60 996.32 996.56 996.33 995.73 995.77 996.40 997.21 997.13 997.72 997.41 997.85 998.27 998.97 999.56 1000.02 1000.73 1002.65 1003.93 1004.88 1005.72 1006.48 1007.54 1008.66 1009.54
1008.20 1007.03 1005.83 1002.24 1000.69 999.85 999.11 998.94 998.46 998.02 997.55 996.95 996.13 995.42 995.24 994.31 993.85 993.90 993.83 994.55 995.32 995.93 995.87 995.74 995.57 996.20 996.41 997.01 997.05 997.10 996.89 997.81 998.67 999.61 1000.32 1000.64 1002.61 1004.05 1004.83 1005.81 1006.89 1007.81 1008.64 1009.32 1010.24
Wind_Speed
12 12 12 13 13 13 13 13 14 15 15 17 18 18 18 18 24 10 12 4 3 2 6 16 15 5 8 2 4 8 8 13 15 17 10 10 14 9 7 10 8 4 19 22 21
13 13 13 13 12 13 13 13 13 14 15 16 18 17 18 16 15 16 4 3 4 1 11 10 11 11 8 5 3 4 12 11 12 14 12 14 12 8 7 13 11 17 23 21 18
13 13 13 14 14 13 13 12 13 13 14 16 17 17 17 18 13 5 5 5 5 10 14 14 12 12 10 1 1 7 9 11 9 11 12 11 6 13 9 13 14 17 20 19 18
13 13 14 15 14 15 13 12 12 13 14 15 17 18 18 12 6 11 5 3 7 12 13 13 10 9 2 13 4 14 6 6 6 5 6 11 11 14 14 15 16 17 19 18 16
12 13 14 14 15 15 15 13 12 13 14 15 17 16 13 11 8 11 7 7 10 11 11 9 11 9 6 7 8 8 6 9 6 5 10 5 11 12 14 15 17 18 17 16 15
14 13 13 14 15 15 15 14 12 12 13 15 16 18 10 14 7 6 1 8 13 13 13 9 6 6 9 3 6 5 4 11 11 7 7 9 10 10 12 16 17 16 16 14 12
14 14 14 15 15 16 15 14 13 12 13 14 14 8 11 8 3 8 7 7 10 12 13 6 5 12 8 10 4 7 13 12 7 7 8 2 8 15 15 14 16 15 14 13 13
15 15 15 14 16 16 17 15 14 13 13 14 11 11 9 4 7 9 10 11 11 11 12 8 7 10 13 3 12 13 8 8 11 6 6 14 4 16 16 15 15 15 13 12 13
16 16 16 15 15 15 16 18 17 13 12 11 10 11 11 7 13 14 15 13 12 12 9 6 10 13 7 16 15 10 11 7 12 7 2 8 11 15 15 15 15 15 14 13 13
16 16 15 16 16 16 20 17 6 6 9 10 9 9 9 13 15 13 12 14 13 14 12 11 11 16 14 17 3 8 4 9 1 13 4 6 12 15 14 14 14 13 15 14 14
17 16 18 16 15 15 17 7 8 10 15 12 6 8 5 6 2 11 13 14 16 16 17 18 16 17 16 5 8 7 6 3 6 6 6 5 11 14 15 13 16 16 15 15 17
17 16 16 18 16 14 9 10 9 8 9 21 14 11 4 6 13 19 19 16 18 18 20 20 18 14 4 2 6 8 8 5 5 5 10 10 8 10 14 11 12 16 17 16 17
17 15 17 19 20 8 12 10 5 7 9 16 16 16 12 13 13 21 21 20 17 21 22 23 17 7 8 11 12 14 10 8 11 9 11 5 14 12 8 5 9 13 19 18 17
16 15 16 22 8 2 9 9 7 6 8 15 14 11 16 13 16 18 19 19 12 20 22 23 17 9 10 15 9 6 1 2 5 12 8 9 3 14 14 12 9 13 16 19 17
17 14 15 8 13 8 8 4 6 6 9 20 17 15 16 18 9 18 20 22 18 16 18 18 20 14 14 13 3 4 7 5 4 13 11 11 9 9 15 17 10 11 14 14 18
18 17 16 7 8 13 6 4 8 9 9 11 13 15 18 21 12 21 16 20 14 16 20 21 22 12 17 9 6 6 8 7 14 14 12 5 9 11 15 15 12 7 7 10 17
19 18 10 10 2 1 7 8 9 13 8 12 17 21 21 16 18 19 23 20 17 16 19 19 20 11 12 9 11 12 19 11 10 8 3 9 9 9 14 9 11 11 8 4 3
25 20 9 11 6 8 7 10 12 15 9 7 14 20 21 21 20 20 22 21 23 19 14 18 20 21 15 19 12 18 20 9 10 10 6 8 2 6 8 12 11 11 10 10 8
31 7 9 7 12 6 9 13 13 5 6 8 11 17 20 18 13 19 20 21 22 22 20 19 20 22 20 20 15 8 15 14 13 9 7 9 10 23 16 13 12 12 13 12 13
8 7 6 7 12 9 10 18 17 4 8 9 14 16 20 22 17 18 18 19 21 24 21 15 16 21 22 6 12 13 14 9 10 13 7 5 8 10 14 15 13 14 13 11 13
8 7 8 9 9 9 12 20 14 6 5 8 14 14 18 19 18 17 16 13 16 19 22 13 16 12 16 15 19 14 13 12 11 11 2 12 7 11 7 16 13 13 13 12 11
7 7 6 11 10 12 14 21 8 6 11 6 9 11 17 17 18 16 14 13 15 16 21 19 16 14 16 24 25 18 16 20 9 5 12 10 4 2 5 2 12 14 12 10 10
7 5 6 11 10 12 18 20 18 13 9 6 8 12 10 16 15 17 15 16 18 18 16 16 11 11 11 11 10 14 7 10 11 12 16 18 8 9 7 10 7 13 13 7 6
7 6 8 9 15 18 14 17 15 15 16 15 13 15 14 16 14 15 15 13 13 22 13 15 20 11 6 12 18 20 9 8 14 3 4 13 11 12 11 10 8 10 11 9 6
7 9 4 10 14 16 18 13 18 14 14 9 15 16 14 14 18 17 17 14 14 15 15 18 17 14 11 10 18 12 18 2 8 13 11 14 10 11 10 9 8 9 11 8 9
8 6 7 13 14 17 14 13 12 11 11 12 14 18 18 16 17 13 19 14 20 17 20 20 11 7 8 12 13 20 2 1 2 6 6 10 8 11 11 10 8 9 10 8 10
7 9 6 10 15 13 15 17 13 11 12 15 11 15 19 17 13 13 13 17 19 16 18 19 8 7 11 9 6 9 10 5 6 2 6 7 11 10 10 10 9 8 8 9 7
Wind_Direction
354 352 349 345 340 336 333 330 328 325 324 321 318 323 318 320 304 232 249 19 6 329 252 264 243 272 227 161 276 241 67 70 66 79 95 85 79 73 102 73 61 105 134 132 140
350 351 345 340 338 335 334 332 327 322 320 317 314 317 310 321 289 261 25 1 326 308 258 306 334 303 141 144 303 51 70 64 43 77 77 71 77 118 130 107 95 87 99 128 148
348 346 344 339 337 336 333 330 325 318 312 310 309 312 311 314 267 208 33 326 250 218 259 292 285 274 132 196 1 15 91 93 57 41 74 94 81 39 86 101 122 129 133 146 147
349 343 340 339 336 333 332 328 323 314 309 309 310 315 311 264 239 84 72 235 192 235 252 278 273 282 294 93 116 107 90 67 54 85 97 75 86 61 63 76 112 128 142 148 160
350 345 341 337 334 331 329 327 323 313 309 308 309 314 301 223 255 124 186 170 185 220 248 277 286 313 42 100 136 93 112 112 101 136 91 109 69 90 86 104 117 128 147 155 174
350 345 342 336 333 329 326 321 316 307 300 301 305 313 245 252 67 147 181 187 210 211 233 246 339 352 274 24 31 108 261 118 138 119 126 128 132 125 112 122 125 143 145 162 146
349 345 340 336 332 327 323 317 309 298 291 293 300 295 265 248 345 179 218 219 219 238 250 227 311 294 354 162 101 198 170 153 134 140 130 178 157 109 138 138 140 142 150 144 149
349 344 337 335 329 324 319 312 298 286 281 279 286 268 262 201 275 228 227 225 229 245 258 318 285 279 267 304 194 215 250 147 127 154 156 126 229 132 151 150 151 152 145 157 154
342 339 330 328 324 320 312 305 289 271 250 265 249 230 246 117 215 217 216 222 199 225 235 299 265 272 244 227 207 209 202 123 144 169 238 155 149 141 164 162 159 159 155 164 168
341 339 335 328 324 321 313 294 314 236 214 223 265 255 233 207 194 200 212 235 203 211 217 228 243 245 224 232 270 190 86 141 211 133 201 182 132 154 179 176 164 172 160 171 174
339 336 335 327 321 321 314 205 206 195 217 240 163 261 132 88 83 222 197 210 225 210 215 207 231 236 240 35 358 10 301 253 101 97 236 217 149 176 172 188 170 174 173 180 177
337 332 331 325 318 315 277 256 23 353 282 216 240 253 271 277 200 203 193 205 211 214 214 221 229 256 87 277 265 264 253 132 119 185 259 149 231 142 158 193 196 183 173 183 178
334 329 326 321 316 273 241 277 335 311 259 204 208 220 209 209 227 190 196 206 203 217 209 231 197 184 216 207 232 233 256 105 135 181 242 242 227 153 134 188 196 208 180 180 173
331 328 324 320 289 347 237 213 243 290 267 170 190 206 200 209 225 198 197 207 219 223 221 223 231 168 195 249 234 317 88 144 236 243 168 247 126 197 157 140 184 192 194 181 177
326 319 317 325 317 242 33 260 267 240 252 145 149 130 177 206 168 214 184 222 228 221 224 208 234 188 223 234 299 78 235 265 294 283 271 183 259 147 164 143 145 168 188 201 183
322 317 317 208 219 268 301 280 240 230 242 153 142 186 177 206 189 171 200 227 231 226 242 230 221 183 214 239 216 313 218 215 234 245 259 152 270 33 330 115 126 137 183 227 198
313 307 276 305 314 241 218 231 218 244 121 153 174 176 193 187 203 165 194 197 213 219 216 228 216 209 231 219 188 227 247 217 218 271 10 234 271 86 198 94 117 137 143 160 209
312 312 187 233 227 254 225 225 249 210 210 131 180 178 197 182 200 187 192 202 216 215 208 204 215 188 184 245 212 211 253 285 303 280 180 156 345 108 46 109 120 132 135 129 145
309 196 227 204 232 222 230 226 223 246 252 191 187 189 199 183 204 198 202 208 201 223 238 189 220 183 208 204 244 216 241 289 311 220 246 179 345 156 147 124 134 134 134 142 126
301 255 170 140 180 213 235 243 242 358 331 284 202 201 196 186 211 202 193 204 206 215 238 191 215 187 211 209 252 268 296 209 221 252 243 97 335 147 174 151 136 142 142 133 112
254 227 103 161 186 217 226 240 248 194 248 261 246 188 218 189 198 194 191 198 190 193 240 243 217 163 195 196 224 202 244 260 273 271 203 225 91 53 6 142 140 138 139 145 139
281 232 133 172 200 217 224 238 267 224 190 263 304 305 222 198 197 224 218 209 207 187 219 241 215 168 197 204 221 251 208 232 219 123 356 305 141 205 342 64 138 134 143 134 135
264 122 162 211 225 216 223 239 249 221 250 250 236 232 261 235 204 212 200 202 182 207 207 229 238 164 168 174 208 249 252 275 92 234 181 209 156 123 119 97 113 125 126 121 120
270 210 147 213 257 287 221 224 235 225 247 264 261 265 237 231 187 214 205 194 192 212 192 252 241 166 111 320 184 218 156 255 300 298 213 81 196 114 101 107 113 121 127 146 150
240 253 99 184 224 243 261 209 218 216 213 229 224 244 236 220 198 196 219 172 190 196 181 239 242 129 164 237 84 352 260 158 295 334 333 355 55 85 65 98 122 134 115 127 110
300 316 353 273 191 220 234 255 233 214 248 232 232 199 228 226 198 198 198 171 195 166 197 219 224 204 152 198 180 200 117 327 347 323 296 314 64 81 98 105 130 122 123 125 116
16 287 267 275 257 212 217 216 231 240 260 259 217 248 211 237 204 209 215 180 173 178 202 213 178 200 214 208 222 236 184 170 23 308 355 327 82 118 123 119 129 135 135 125 123